Location: Three Oaks Observatory
(31.1535°N, 83.5955°W)
Time: 02:05:00
(UTC-05:00)

FALCONSAT 3 - Pass Details

Date: 26 October 2019
Orbit: 454 x 457 km, 35.4° (Epoch: 18 November)

Event Time Altitude Azimuth Distance (km) Brightness Sun altitude
Exits shadow 05:51:12 42° 83° (E) 652 ? -24.9°
Drops below altitude 10° 05:53:45 10° 99° (E) 1,578 ? -24.4°
Sets 05:55:56 0° 102° (ESE) 2,449 ? -23.9°
